www.pogodaiklimat.ru

Погода и климат >> Архив погоды >> Швейцария >> Zurich


АРХИВ ПОГОДЫ в Zurich

Время (UTC), дата Ветер
(напр.,м/с)
 
Видим.   Явления Облачность Т
(С)
Тd
(С)
f
(%)
Тe
(С)
Тes
(С)
Комфортность P
(гПа)
Po
(гПа)
Тmin
(С)
Tmax
(С)
R
(мм)
R24
(мм)
S
(см)
10 12.07 С 2 н/о н/о +20.9 +9.0 46 +23 +23 комфорт 1016.1 953.1
11 12.07 С 2 н/о н/о +21.9 +10.2 47 +24 +24 комфорт 1016.0 953.2
12 12.07 С 2
{6}
н/о 3/0
[]
+22.6 +9.6 44 +24 +41 комфорт 1015.7 953.1
14 12.07 В 2 н/о н/о +22.9 +7.4 37 +24 +24 комфорт 1015.3 952.8
13 12.07 СВ 1 н/о н/о +23.5 +6.3 33 +24 +24 комфорт 1015.3 952.9
15 12.07 С 2
{5}
н/о н/о +24.2 +6.3 32 +24 +24 комфорт 1014.8 952.6
16 12.07 СВ 2 н/о н/о +24.1 +5.5 30 +24 +24 комфорт 1014.7 952.5
17 12.07 С 2 н/о н/о +24.6 +6.5 31 +25 +25 комфорт 1014.6 952.5
18 12.07 С 1
{5}
н/о 3/0
[]
+22.8 +7.9 38 +24 +25 комфорт 1015.3 952.8 +24.6
20 12.07 С 3 н/о н/о +20.1 +10.8 55 +22 +22 комфорт 1017.0 953.8
19 12.07 С 2 н/о н/о +21.3 +8.8 45 +23 +23 комфорт 1016.0 953.1
21 12.07 С 3
{5}
н/о н/о +18.9 +11.1 61 +20 +20 тепло 1017.8 954.3
22 12.07 СВ 2 н/о н/о +18.0 +11.2 64 +19 +19 тепло 1018.0 954.3
23 12.07 СВ 2 н/о н/о +17.5 +10.8 65 +18 +18 тепло 1018.3 954.4
00 13.07 СВ 2
{5}
н/о н/о +16.0 +11.0 72 +16 +16 по сезону 1018.7 954.5
02 13.07 СВ 1 н/о н/о +14.9 +10.9 77 +15 +15 по сезону 1019.2 954.7
01 13.07 СВ 1 н/о н/о +15.9 +10.8 72 +17 +17 по сезону 1018.9 954.6
03 13.07 ЮВ 1
{4}
н/о н/о +14.5 +10.8 78 +16 +16 по сезону 1019.4 954.8
04 13.07 штиль 0 н/о н/о +14.2 +11.0 81 +14 +14 по сезону 1019.9 955.2
05 13.07 СВ 1 н/о н/о +14.7 +11.7 82 +16 +16 по сезону 1019.8 955.2
06 13.07 Ю 1
{4}
н/о ясно +16.2 +11.7 75 +18 +21 тепло 1019.4 955.2 +14.2
08 13.07 СВ 1 н/о н/о +20.0 +12.4 62 +23 +23 комфорт 1019.0 955.6
07 13.07 Ю 1 н/о н/о +17.9 +12.5 71 +20 +20 тепло 1019.3 955.5
09 13.07 В 2
{4}
н/о н/о +21.6 +11.6 53 +24 +24 комфорт 1018.4 955.4
10 13.07 С 2 н/о н/о +23.0 +10.9 46 +25 +25 комфорт 1018.0 955.4
11 13.07 ЮВ 1 н/о н/о +24.5 +9.8 39 +25 +25 комфорт 1017.6 955.3
12 13.07 С 2
{7}
н/о ясно +25.4 +8.6 34 +26 +45 жарко 1017.1 955.0
14 13.07 ЮЗ 3 н/о н/о +26.4 +9.0 33 +27 +27 жарко 1016.3 954.5
13 13.07 СЗ 3 н/о н/о +25.8 +8.7 34 +26 +26 жарко 1016.6 954.6
15 13.07 ЮЗ 3
{7}
н/о н/о +26.8 +9.6 34 +27 +27 жарко 1015.8 954.1
16 13.07 ЮЗ 3 н/о н/о +26.6 +9.6 34 +27 +27 жарко 1015.6 953.9
17 13.07 С 1 н/о н/о +27.0 +8.5 31 +27 +27 жарко 1015.2 953.6
18 13.07
{7}
н/о 3/0
[]
+25.3 +9.1 36 1015.7 953.7 +27.5
20 13.07 н/о н/о +22.1 +10.6 48 1017.1 954.3
19 13.07 С 2 н/о н/о +23.6 +9.8 42 +25 +25 комфорт 1016.2 953.8
21 13.07 С 1
{3}
н/о н/о +21.6 +11.4 52 +24 +24 комфорт 1017.5 954.6
22 13.07 Ю 1 н/о н/о +20.5 +11.1 55 +23 +23 комфорт 1017.8 954.6
23 13.07 Ю 1 н/о н/о +21.4 +12.0 55 +24 +24 комфорт 1017.5 954.5
00 14.07 С 2
{3}
н/о н/о +20.2 +12.3 60 +23 +23 комфорт 1018.1 954.8
02 14.07 СВ 1 н/о н/о +18.8 +12.2 65 +21 +21 комфорт 1018.3 954.7
01 14.07 С 3 н/о н/о +20.0 +11.5 58 +22 +22 комфорт 1018.2 954.9
03 14.07 ЮЗ 1
{5}
н/о н/о +18.6 +11.8 65 +21 +21 комфорт 1018.6 955.0
04 14.07 З 1 н/о н/о +17.1 +13.0 77 +19 +19 тепло 1018.7 954.7
05 14.07 штиль 0 н/о н/о +17.4 +13.5 78 +17 +17 тепло 1018.8 954.9
06 14.07 Ю 1
{5}
н/о н/о +18.5 +13.7 74 +21 +21 комфорт 1018.9 955.2 +17.0
08 14.07 ЮВ 1 н/о н/о +21.5 +13.3 60 +24 +24 комфорт 1018.2 955.2
07 14.07 Ю 1 н/о н/о +20.0 +13.8 67 +24 +24 комфорт 1018.6 955.3
09 14.07 Ю 1
{3}
н/о н/о +23.8 +14.0 54 +26 +26 жарко 1017.4 955.0
10 14.07 Ю 1 н/о н/о +25.1 +13.3 48 +27 +27 жарко 1016.8 954.7
11 14.07 ЮВ 2 н/о н/о +25.4 +11.0 40 +26 +26 жарко 1016.4 954.4
12 14.07 ЮЗ 2
{6}
н/о н/о +27.4 +10.3 34 +28 +28 жарко 1015.4 953.9
14 14.07 ЮЗ 2 н/о н/о +27.3 +9.6 33 +28 +28 жарко 1014.4 952.9
13 14.07 СЗ 2 н/о н/о +27.1 +10.7 36 +28 +28 жарко 1015.0 953.4
15 14.07 З 2
{9}
н/о н/о +27.2 +10.7 36 +28 +28 жарко 1014.1 952.6
16 14.07 З 2 н/о н/о +26.7 +10.6 36 +27 +27 жарко 1013.9 952.3
17 14.07 СЗ 2 н/о н/о +26.3 +10.2 36 +27 +27 жарко 1013.8 952.1
18 14.07 СЗ 2
{9}
н/о 8/0
[]
+26.2 +7.8 31 +26 +27 жарко 1013.8 952.1 +28.7
20 14.07 СЗ 1 н/о н/о +22.6 +10.3 46 +24 +24 комфорт 1015.0 952.5
19 14.07 СЗ 2 н/о н/о +24.8 +9.1 37 +25 +25 комфорт 1014.1 952.1
21 14.07 СЗ 1
{3}
н/о н/о +21.5 +10.7 50 +23 +23 комфорт 1015.5 952.7
22 14.07 ЮЗ 2 н/о н/о +21.0 +11.5 55 +24 +24 комфорт 1015.7 952.8
23 14.07 ЮЗ 3 н/о н/о +21.7 +11.4 52 +24 +24 комфорт 1016.0 953.2
00 15.07 Ю 5
{10}
н/о н/о +19.4 +12.1 63 +20 +20 тепло 1017.2 953.8
02 15.07 ЮЗ 3 н/о н/о +18.2 +12.3 68 +19 +19 тепло 1016.9 953.3
01 15.07 З 2 н/о н/о +18.8 +12.1 65 +20 +20 тепло 1017.0 953.5
03 15.07 Ю 1
{7}
н/о н/о +18.1 +11.9 67 +19 +19 тепло 1016.4 952.8
04 15.07 В 1 н/о н/о +17.7 +12.2 70 +19 +19 тепло 1016.5 952.8
05 15.07 В 2 н/о н/о +17.6 +12.5 72 +18 +18 тепло 1016.8 953.0
06 15.07 Ю 1
{7}
н/о н/о +18.7 +12.8 69 +21 +21 комфорт 1016.6 953.1 +17.5
08 15.07 ЮЗ 1 н/о н/о +20.4 +11.9 58 +24 +24 комфорт 1016.3 953.2
07 15.07 Ю 2 н/о н/о +19.6 +13.6 68 +22 +22 комфорт 1016.6 953.3
09 15.07 Ю 2
{4}
н/о н/о +23.1 +11.5 48 +25 +25 комфорт 1015.1 952.7
10 15.07 ЮВ 2 н/о н/о +24.5 +11.8 45 +26 +26 жарко 1014.5 952.4
11 15.07 Ю 3 н/о н/о +25.6 +11.9 42 +27 +27 жарко 1013.6 951.8
12 15.07 ЮЗ 2
{5}
н/о 4/0
[]
+26.8 +11.1 37 +28 +42 жарко 1012.7 951.2
14 15.07 З 2 н/о н/о +27.5 +10.6 35 +28 +28 жарко 1011.6 950.3
13 15.07 СЗ 2 н/о н/о +26.5 +11.3 39 +28 +28 жарко 1012.3 950.8
15 15.07 ЮЗ 2
{6}
н/о н/о +26.3 +10.7 38 +27 +27 жарко 1011.8 950.2
16 15.07 СЗ 2 н/о н/о +21.5 +14.1 63 +24 +24 комфорт 1012.9 950.2
17 15.07 СВ 4 н/о н/о +20.0 +14.1 69 +22 +22 комфорт 1013.3 950.3
18 15.07 СВ 1
{12}
н/о 9/0
[]
+19.5 +14.9 75 +23 +23 комфорт 1013.7 950.6 +28.6 2
20 15.07 ЮЗ 5 н/о н/о +19.9 +14.1 69 +22 +22 комфорт 1016.1 952.9
19 15.07 н/о н/о +19.4 +14.5 73 1014.5 951.3
21 15.07 Ю 4
{10}
н/о н/о +18.2 +12.5 69 +18 +18 по сезону 1016.8 953.2
22 15.07 Ю 4 н/о н/о +17.5 +13.0 75 +17 +17 по сезону 1016.1 952.4
23 15.07 Ю 1 н/о н/о +16.9 +12.6 76 +18 +18 тепло 1016.1 952.2
00 16.07 ЮЗ 1
{10}
н/о н/о +16.9 +12.5 75 +18 +18 тепло 1015.7 951.9
02 16.07 ЮВ 1 н/о н/о +15.6 +12.9 84 +16 +16 по сезону 1015.7 951.6
01 16.07 ЮЗ 1 н/о н/о +16.2 +13.1 82 +18 +18 тепло 1015.6 951.6
03 16.07 ЮЗ 2
{3}
н/о н/о +15.2 +12.9 86 +15 +15 по сезону 1015.6 951.4
04 16.07 В 1 н/о н/о +14.9 +12.9 88 +16 +16 по сезону 1015.8 951.5
05 16.07 ЮВ 1 н/о н/о +15.2 +13.1 87 +16 +16 по сезону 1015.9 951.7
06 16.07 Ю 1
{3}
н/о 4/0
[]
+16.1 +13.2 83 +17 +20 тепло 1015.5 951.5 +14.8
08 16.07 Ю 1 н/о н/о +19.0 +13.0 68 +21 +21 комфорт 1013.9 950.6
07 16.07 ЮЗ 1 н/о н/о +17.5 +13.1 75 +19 +19 по сезону 1015.0 951.3
09 16.07 ЮЗ 2
{3}
н/о н/о +21.7 +13.5 60 +24 +24 комфорт 1012.8 950.2
10 16.07 З 2 н/о н/о +24.0 +13.0 50 +26 +26 жарко 1012.2 950.1
11 16.07 ЮВ 2 н/о н/о +25.3 +11.8 43 +27 +27 жарко 1011.1 949.4
12 16.07 СВ 2
{4}
н/о 3/0
[]
+25.5 +11.1 40 +27 +41 жарко 1010.3 948.7
14 16.07 В 2 н/о н/о +26.7 +9.7 34 +27 +27 жарко 1009.0 947.7
13 16.07 С 2 н/о н/о +27.0 +10.7 36 +28 +28 жарко 1009.4 948.1
15 16.07 С 2
{7}
н/о н/о +27.2 +7.7 29 +27 +27 жарко 1008.5 947.3
16 16.07 СВ 3 н/о н/о +26.7 +10.8 37 +28 +28 жарко 1008.3 947.0
17 16.07 С 2 н/о н/о +26.3 +9.7 35 +27 +27 жарко 1008.3 947.0
18 16.07 СВ 2
{7}
н/о 1/0
[]
+24.2 +9.1 38 +25 +26 комфорт 1009.1 947.3 +27.6
20 16.07 СЗ 3 н/о н/о +22.3 +11.6 51 +25 +25 комфорт 1011.4 949.0
19 16.07 СВ 2 н/о н/о +22.8 +10.5 46 +25 +25 комфорт 1010.2 948.0
21 16.07 З 4
{16}
н/о н/о +15.5 +13.4 87 +15 +15 прохладно 1014.6 950.5
22 16.07 В 4 н/о н/о +15.7 +12.6 82 +15 +15 по сезону 1013.9 949.9
23 16.07 З 1 н/о н/о +15.6 +14.2 91 +17 +17 по сезону 1014.3 950.3
00 17.07 СВ 1
{16}
н/о н/о +15.4 +14.1 92 +17 +17 по сезону 1014.8 950.7 4
02 17.07 СВ 1 н/о н/о +14.5 +13.1 91 +16 +16 по сезону 1015.0 950.7
01 17.07 штиль 0 н/о н/о +14.8 +13.5 92 +14 +14 по сезону 1015.1 950.8
03 17.07 штиль 0
{1}
н/о н/о +14.4 +13.1 92 +14 +14 по сезону 1015.4 951.0
04 17.07 СВ 1 н/о н/о +14.6 +13.1 91 +15 +15 по сезону 1015.7 951.3
05 17.07 В 1 н/о н/о +14.9 +13.4 91 +16 +16 по сезону 1016.2 951.9
06 17.07 штиль 0
{2}
н/о 5/0
[]
+16.3 +14.7 90 +16 +19 по сезону 1016.3 952.3 +14.3 4
08 17.07 ЮЗ 1 н/о н/о +19.2 +14.0 72 +22 +22 комфорт 1016.1 952.7
07 17.07 Ю 1 н/о н/о +18.2 +14.2 77 +20 +20 по сезону 1016.1 952.5
09 17.07 З 2
{5}
н/о н/о +21.7 +13.7 60 +24 +24 комфорт 1015.8 953.0
10 17.07 З 2 н/о н/о +23.6 +13.1 52 +26 +26 жарко 1015.4 953.0
11 17.07 З 2 н/о н/о +24.1 +11.8 46 +26 +26 жарко 1014.9 952.7
12 17.07 З 3
{6}
н/о н/о +26.6 +10.0 35 +27 +27 жарко 1014.2 952.6
14 17.07 С 3 н/о н/о +23.6 +8.4 38 +24 +24 комфорт 1015.0 952.7
13 17.07 С 2 н/о н/о +24.4 +7.1 33 +25 +25 комфорт 1014.7 952.6
15 17.07 З 3
{7}
н/о н/о +23.6 +11.3 46 +25 +25 комфорт 1015.5 953.1
16 17.07 Ю 2 н/о н/о +24.6 +11.5 44 +26 +26 жарко 1015.3 953.2
17 17.07 Ю 5 н/о н/о +23.4 +11.2 46 +26 +26 жарко 1015.5 953.1
18 17.07 Ю 3
{8}
н/о 4/0
[]
+22.5 +10.2 46 +24 +25 комфорт 1015.6 953.0 +26.7 0.1
20 17.07 ЮВ 1 н/о н/о +19.9 +11.4 58 +23 +23 комфорт 1017.0 953.7
19 17.07 Ю 2 н/о н/о +20.7 +11.6 56 +24 +24 комфорт 1016.2 953.2
21 17.07 Ю 3
{6}
н/о н/о +19.9 +11.6 59 +22 +22 комфорт 1017.5 954.2
22 17.07 В 1 н/о н/о +20.0 +11.9 60 +23 +23 комфорт 1017.6 954.3
23 17.07 В 1 н/о н/о +16.4 +15.1 92 +18 +18 тепло 1018.4 954.3
00 18.07 Ю 1
{6}
н/о н/о +16.8 +14.3 85 +18 +18 тепло 1018.3 954.3 1
02 18.07 В 1 н/о н/о +15.3 +14.1 93 +16 +16 по сезону 1018.5 954.1
01 18.07 Ю 1 н/о н/о +16.0 +14.3 90 +17 +17 по сезону 1018.4 954.2
03 18.07 Ю 1
{2}
н/о н/о +15.4 +14.2 93 +17 +17 по сезону 1018.3 954.0
04 18.07 В 1 н/о н/о +15.5 +13.9 90 +17 +17 по сезону 1018.3 954.0
05 18.07 штиль 0 н/о н/о +15.6 +14.3 92 +15 +15 по сезону 1018.4 954.1
06 18.07 Ю 1
{2}
н/о н/о +17.1 +13.4 79 +19 +19 тепло 1018.2 954.2 +15.3 1
08 18.07 З 1 н/о н/о +20.4 +13.3 64 +24 +24 комфорт 1017.4 954.2
07 18.07 Ю 1 н/о н/о +18.4 +13.3 72 +20 +20 по сезону 1017.7 954.1
09 18.07 З 2
{4}
н/о н/о +22.5 +14.6 61 +26 +26 жарко 1016.6 953.9
10 18.07 СВ 1 н/о н/о +23.9 +13.0 50 +26 +26 жарко 1016.0 953.7
11 18.07 С 1 н/о н/о +25.2 +11.5 42 +27 +27 жарко 1015.4 953.4
12 18.07 СЗ 2
{5}
н/о 3/0
[]
+26.3 +10.1 36 +27 +43 жарко 1014.7 953.0
14 18.07 СВ 2 н/о н/о +27.5 +8.1 29 +27 +27 жарко 1013.6 952.2
13 18.07 С 2 н/о н/о +27.2 +9.6 33 +28 +28 жарко 1014.1 952.6
15 18.07 СЗ 3
{6}
н/о н/о +28.3 +7.1 26 +28 +28 жарко 1013.1 951.9
16 18.07 С 2 н/о н/о +28.2 +6.1 25 +27 +27 жарко 1012.7 951.5
17 18.07 С 2 н/о н/о +28.1 +4.3 22 +27 +27 жарко 1012.2 951.0
18 18.07 С 1
{6}
н/о 1/0
[]
+26.8 +6.7 28 +26 +27 жарко 1012.4 950.9 +28.9
20 18.07 СВ 3 н/о н/о +21.9 +9.2 44 +23 +23 комфорт 1014.0 951.4
19 18.07 СВ 2 н/о н/о +23.3 +8.1 38 +24 +24 комфорт 1013.3 951.0
21 18.07 С 3
{5}
н/о н/о +22.0 +10.0 46 +24 +24 комфорт 1014.3 951.7
22 18.07 СВ 2 н/о н/о +21.4 +11.7 54 +23 +23 комфорт 1014.8 952.0
23 18.07 СВ 3 н/о н/о +20.9 +11.9 56 +23 +23 комфорт 1015.2 952.3
00 19.07 СВ 2
{8}
н/о н/о +19.9 +11.9 60 +22 +22 комфорт 1015.9 952.7
02 19.07 СВ 1 н/о н/о +17.9 +11.9 68 +19 +19 тепло 1016.3 952.6
01 19.07 СВ 3 н/о н/о +19.7 +11.6 60 +22 +22 комфорт 1015.8 952.6
03 19.07 СЗ 1
{5}
н/о н/о +16.5 +12.0 75 +18 +18 тепло 1016.5 952.5
04 19.07 СВ 2 н/о н/о +16.6 +11.2 70 +17 +17 по сезону 1016.3 952.4
05 19.07 С 1 н/о н/о +16.7 +11.3 70 +18 +18 тепло 1016.6 952.7
06 19.07 Ю 1
{5}
н/о н/о +18.3 +11.4 64 +20 +20 тепло 1016.4 952.8 +16.4
08 19.07 СВ 2 н/о н/о +21.5 +11.6 53 +24 +24 комфорт 1015.8 953.0
07 19.07 СВ 2 н/о н/о +19.9 +11.6 59 +22 +22 комфорт 1016.1 952.9

 

Местоположение метеостанции Zurich (Швейцария): широта 47.38 долгота 8.57 высота над уровнем моря 569 м.

В архиве по умолчанию представлена погода в Zurich за последнюю неделю. Архивные данные за месяц целиком и за предыдущие месяцы, начиная с января 2011 года, Вы можете получить, выбрав интересующий диапазон дат из раскрывающегося списка и нажав кнопку "Ввод!".


*Определитесь, кто Вы:
робот инопланетянин человек

Внимание! Время в таблицах - всемирное. Для получения местного времени необходимо прибавить поправку, которая в Zurich равна 1 ч.

Смотрите также архив погоды в соседних городах и на ближайших метеорологических станциях:

Погода в Reckenholz (Швейцария) (7 км)
Погода в Zurich-Kloten (Швейцария) (12 км)
Погода в Laegern (Швейцария) (17 км)
Погода в Wadenswil (Швейцария) (20 км)
Погода в Cham (Швейцария) (23 км)
Погода в Taenikon (Швейцария) (27 км)
Погода в Hoernli (Швейцария) (29 км)
Погода в Psi Wuerenlingen (Швейцария) (31 км)
Погода в Mosen (Швейцария) (31 км)
Погода в Einsiedeln (Швейцария) (31 км)

Пояснения к столбцам:

Ветер - указаны скорость ветра в м/с - средняя за 10 мин, порывы в срок и между сроками (в фигурных скобках) и направление, откуда дует ветер: С - северный, СВ - северо-восточный, В - восточный, ЮВ - юго-восточный, Ю - южный, ЮЗ - юго-западный, З - западный, СЗ - северо-западный.
Видимость - горизонтальная дальность видимости в метрах или километрах. При видимости от 1 до 10 км при отсутствии осадков обычно наблюдается дымка, при ухудшении видимости до 1 км и менее - туман. В сухую погоду видимость может ухудшаться дымом, пылью или мглою.
Явления - указаны атмосферные явления, наблюдавшиеся в срок или в последний час перед сроком; фигурными скобками обозначены явления, наблюдавшиеся между сроками (за 1-3 часа до срока); квадратными скобками обозначены град или гололедные отложения с указанием их диаметра в мм.
Облачность - указаны через наклонную черту общая и нижняя облачность в баллах и высота нижней границы облаков в метрах; квадратными скобками обозначены формы облаков: Ci - перистые, Cs - перисто-слоистые, Cc - перисто-кучевые, Ac - высококучевые, As - высокослоистые, Sc - слоисто-кучевые, Ns - слоисто-дождевые, Cu - кучевые, Cb - кучево-дождевые. Подробнее классификацию облаков см. в Атласе облаков (PDF).
T - Температура воздуха - температура, измеренная на высоте 2 м над землей.
Td - Температура точки росы - температура, при понижении до которой содержащийся в воздухе водяной пар достигнет насыщения.
f - Относительная влажность воздуха - влажноcть воздуха, измеренная на высоте 2 м над землей.
Te - Эффективная температура - температура, которую ощущает одетый по сезону человек в тени. Характеристика душности погоды. При расчете учитывается влияние влажности воздуха и скорости ветра на теплоощущения человека.
Tes - Эффективная температура на солнце - температура, которую ощущает человек, с поправкой на солнечный нагрев. Характеристика знойности погоды. Зависит от высоты солнца над горизонтом, облачности и скорости ветра. Ночью, в пасмурную погоду, а также при ветре 12 м/с и более поправка равна нулю.
P - Атмосферное давление - приведенное к уровню моря атмосферное давление.
Po - Атмосферное давление - измеренное на уровне метеостанции атмосферное давление.
Tmin - Минимальная температура - минимум температуры воздуха на высоте 2 м над землей.
Tmax - Максимальная температура - максимум температуры воздуха на высоте 2 м над землей.
R - Количество осадков - Количество выпавших осадков за период времени, мм. При наведении курсора мыши на число - период времени, за который выпало указанное количество осадков.
R24 - Количество осадков - Количество выпавших осадков за 24 часа, мм.
S - Снежный покров - Высота снежного покрова, см. При наведении курсора мыши на число - состояние снежного покрова и степень покрытия местности в баллах.